Location: Millers Ferry
(32.0990°N, 87.3680°W)
Time: 08:43:05
(UTC-05:00)

CSL-04 Rocket - Visible Passes

Search period start: 29 March 2015 00:00
Search period end: 08 April 2015 00:00
Orbit: 807 x 860 km, 98.9° (Epoch: 28 March)

Date Brightness Start Highest point End Pass type
(mag) Time Alt. Az. Time Alt. Az. Time Alt. Az.
29 Mar 3.9 05:17:44 10° NNE 05:23:12 73° ESE 05:28:34 10° S visible
30 Mar 4.5 05:01:05 10° NNE 05:06:21 49° E 05:11:33 10° S visible
31 Mar 5.3 04:44:37 10° NE 04:49:27 33° E 04:54:17 10° SSE visible
01 Apr 5.9 04:28:23 10° NE 04:32:30 22° E 04:36:42 10° SSE visible
01 Apr 4.3 06:07:59 10° N 06:12:57 36° WNW 06:17:47 10° SW visible
02 Apr 6.3 04:12:37 10° ENE 04:15:28 15° E 04:18:36 10° SE visible
02 Apr 3.8 05:50:55 10° N 05:56:12 53° WNW 06:01:23 10° SSW visible
03 Apr 3.6 05:34:00 10° N 05:39:27 79° WNW 05:44:47 10° SSW visible
04 Apr 3.9 05:17:13 10° NNE 05:22:38 71° ESE 05:27:58 10° S visible
05 Apr 4.6 05:00:35 10° NNE 05:05:47 48° E 05:10:55 10° S visible
06 Apr 5.3 04:44:07 10° NE 04:48:53 32° E 04:53:38 10° SSE visible
07 Apr 5.9 04:27:55 10° NE 04:31:54 22° E 04:36:02 10° SE visible
07 Apr 4.2 06:07:26 10° N 06:12:23 37° WNW 06:17:12 10° SW visible
